Weather History for CYMX - October, 2013

Change the Weather History Date:

Thursday, October 31, 2013

  Actual Average Record
Temperature  
Mean Temperature 40 °F -  
Max Temperature 51 °F 45 °F 64 °F (1999)
Min Temperature 28 °F 30 °F 21 °F (2002)
Degree Days  
Heating Degree Days 26    
Moisture  
Dew Point 35 °F    
Average Humidity 93    
Maximum Humidity 100    
Minimum Humidity 86    
Precipitation  
Precipitation 0.00 in - - ()
Sea Level Pressure  
Sea Level Pressure 29.90 in    
Wind  
Wind Speed 4 mph ()    
Max Wind Speed 12 mph    
Max Gust Speed -    
Visibility 5.0 miles    
Events Rain    
Averages and records for this station are not official NWS values.
T = Trace of Precipitation, MM = Missing Value Source: Averaged Metar Reports

Daily Weather History Graph

Daily Weather History Graph

Search for Another Location

Airport or City:

Trip Planner

Search our weather history database for the weather conditions in past years. The results will help you decide how hot, cold, wet, or windy it might be!

Date:

Astronomy

Oct. 31, 2013 Rise Set
Actual Time 7:34 AM EDT 5:43 PM EDT
Civil Twilight 7:03 AM EDT 6:14 PM EDT
Nautical Twilight 6:28 AM EDT 6:49 PM EDT
Astronomical Twilight 5:54 AM EDT 7:24 PM EDT
Moon 4:12 AM EDT (10/31) 4:07 PM EDT (10/31)
Length of Visible Light 11h 10m
Length of Day
10h 09m
Waning Crescent, 10% of the Moon is Illuminated
Oct 31
Waning Crescent
Nov 3
New
Nov 10
First Quarter
Nov 17
Full
Nov 25
Last Quarter

Hourly Weather History & Observations

Time (EDT) Temp. Windchill Dew Point Humidity Pressure Visibility Wind Dir Wind Speed Gust Speed Precip Events Conditions
12:00 AM 28.4 °F - 24.8 °F 86% 30.20 in 25.0 mi SW 2.3 mph - N/A   Scattered Clouds
1:00 AM 28.4 °F - 24.8 °F 86% 30.19 in 15.0 mi Calm Calm - N/A   Mostly Cloudy
2:00 AM 30.2 °F - 26.6 °F 86% 30.17 in 15.0 mi East 2.3 mph - N/A   Mostly Cloudy
3:00 AM 30.2 °F - 26.6 °F 86% 30.16 in 15.0 mi NNE 2.3 mph - N/A   Overcast
3:35 AM 30.2 °F - 26.6 °F 86% 30.15 in 10.0 mi Calm Calm - N/A   Mostly Cloudy
4:00 AM 30.2 °F 26.7 °F 26.6 °F 86% 30.14 in 8.0 mi North 3.5 mph - N/A   Mostly Cloudy
4:17 AM 30.2 °F - 28.4 °F 93% 30.14 in 8.0 mi Calm Calm - N/A   Overcast
5:00 AM 32.0 °F 26.4 °F 28.4 °F 87% 30.12 in 5.0 mi NNE 5.8 mph - N/A   Overcast
6:00 AM 32.0 °F 25.6 °F 28.4 °F 87% 30.10 in 5.0 mi NE 6.9 mph - N/A   Overcast
6:37 AM 33.8 °F 28.6 °F 30.2 °F 87% 30.08 in 6.0 mi NE 5.8 mph - N/A   Overcast
7:00 AM 32.0 °F 26.4 °F 30.2 °F 93% 30.06 in 8.0 mi NE 5.8 mph - N/A   Overcast
8:00 AM 33.8 °F 28.6 °F 32.0 °F 93% 30.04 in 4.0 mi NE 5.8 mph - N/A   Overcast
9:00 AM 35.6 °F 31.7 °F 32.0 °F 87% 30.03 in 4.0 mi NNE 4.6 mph - N/A   Overcast
10:00 AM 37.4 °F 32.1 °F 33.8 °F 87% 29.99 in 6.0 mi NE 6.9 mph - N/A   Overcast
11:00 AM 37.4 °F 31.4 °F 33.8 °F 87% 29.95 in 5.0 mi NE 8.1 mph - N/A   Overcast
11:28 AM 37.4 °F 33.8 °F 35.6 °F 93% 29.93 in 5.0 mi NNE 4.6 mph - N/A Rain Light Rain
12:00 PM 39.2 °F 34.2 °F 35.6 °F 87% 29.91 in 4.0 mi NE 6.9 mph - N/A Rain Light Rain
1:00 PM 37.4 °F 32.1 °F 37.4 °F 100% 29.86 in 2.0 mi NE 6.9 mph - N/A Rain Light Rain
1:35 PM 37.4 °F 31.4 °F 37.4 °F 100% 29.82 in 1.8 mi NE 8.1 mph - N/A Rain Light Rain
2:00 PM 39.2 °F 35.0 °F 37.4 °F 93% 29.79 in 1.2 mi NE 5.8 mph - N/A Rain Light Rain
2:31 PM 39.2 °F 34.2 °F 37.4 °F 93% 29.76 in 0.8 mi NE 6.9 mph - N/A Rain Light Rain
3:00 PM 39.2 °F 35.0 °F 39.2 °F 100% 29.74 in 0.8 mi NE 5.8 mph - N/A Rain Light Rain
4:00 PM 39.2 °F 35.0 °F 39.2 °F 100% 29.72 in 1.5 mi NNE 5.8 mph - N/A Rain Light Rain
5:00 PM 39.2 °F 35.9 °F 39.2 °F 100% 29.69 in 2.0 mi NNE 4.6 mph - N/A Rain Light Rain
6:00 PM 41.0 °F - 41.0 °F 100% 29.68 in 2.0 mi North 2.3 mph - N/A Rain Light Rain
7:00 PM 42.8 °F - 41.0 °F 93% 29.66 in 2.0 mi Variable 2.3 mph - N/A Rain Light Rain
8:00 PM 42.8 °F 41.1 °F 42.8 °F 100% 29.63 in 2.0 mi ENE 3.5 mph - N/A Rain Light Rain
9:00 PM 42.8 °F - 42.8 °F 100% 29.60 in 0.8 mi NE 2.3 mph - N/A Rain Light Rain
10:00 PM 51.8 °F - 50.0 °F 94% 29.57 in 2.0 mi SSE 8.1 mph - N/A Rain Light Rain
10:34 PM 51.8 °F - 51.8 °F 100% 29.55 in 3.0 mi SSE 11.5 mph - N/A Rain Light Rain
11:00 PM 51.8 °F - 51.8 °F 100% 29.54 in 4.0 mi SSE 11.5 mph - N/A Rain Light Rain